When you browse on this site, cookies collect data to enhance your experience and personalize the content and advertising you see.
Visit our Privacy Policy to learn more. By continuing to use the site, you agree to this use of cookies and data.
  • In Hungary
  • List of Countries
  • For 7 days
  • Water Temperature
  • Satellite Maps
  • Weather Map
  • News
  • Weather Widgets
  • user-avatar
    Login

    Hourly Weather Folkern

    Today, 24 January, Thursday

    Time Temperature Precipitation Wind Pressure Humidity
    00:00 +5°C° 0 mm 7 mps 753 mmHg 65%
    01:00 +5°C° 0 mm 6 mps 753 mmHg 64%
    02:00 +6°C° 0 mm 5 mps 753 mmHg 63%
    03:00 +6°C° 0 mm 5 mps 753 mmHg 62%
    04:00 +6°C° 0 mm 4 mps 754 mmHg 60%
    05:00 +7°C° 0 mm 2 mps 754 mmHg 59%
    06:00 +8°C° 0 mm 1 mps 754 mmHg 57%
    07:00 +8°C° 0 mm 1 mps 754 mmHg 59%
    08:00 +8°C° 0 mm 1 mps 754 mmHg 60%
    09:00 +8°C° 0 mm 1 mps 754 mmHg 62%
    10:00 +7°C° 0 mm 2 mps 754 mmHg 65%
    11:00 +7°C° 0 mm 3 mps 755 mmHg 69%
    12:00 +7°C° 0 mm 3 mps 755 mmHg 72%
    13:00 +6°C° 0 mm 4 mps 755 mmHg 75%
    14:00 +6°C° 0 mm 5 mps 755 mmHg 77%
    15:00 +5°C° 0 mm 6 mps 754 mmHg 80%
    16:00 +7°C° 0.2 mm 6 mps 754 mmHg 84%
    17:00 +6°C° 0.2 mm 7 mps 754 mmHg 88%
    18:00 +6°C° 0.2 mm 8 mps 754 mmHg 92%
    19:00 +7°C° 0.3 mm 8 mps 754 mmHg 92%
    20:00 +7°C° 0.3 mm 8 mps 754 mmHg 93%
    21:00 +7°C° 0.3 mm 8 mps 754 mmHg 94%
    22:00 +8°C° 0.2 mm 10 mps 754 mmHg 93%
    23:00 +8°C° 0.2 mm 11 mps 753 mmHg 91%

    Tomorrow, 25 January, Friday

    Time Temperature Precipitation Wind Pressure Humidity
    00:00 +8°C° 0.2 mm 13 mps 753 mmHg 90%
    01:00 +8°C° 0.1 mm 12 mps 753 mmHg 90%
    02:00 +8°C° 0.1 mm 12 mps 753 mmHg 89%
    03:00 +8°C° 0.1 mm 11 mps 753 mmHg 89%
    04:00 +7°C° 0.1 mm 11 mps 753 mmHg 86%
    05:00 +7°C° 0.1 mm 11 mps 754 mmHg 84%
    06:00 +7°C° 0.1 mm 10 mps 754 mmHg 81%
    07:00 +7°C° 0 mm 10 mps 754 mmHg 79%
    08:00 +7°C° 0 mm 10 mps 754 mmHg 77%
    09:00 +7°C° 0 mm 10 mps 754 mmHg 75%
    10:00 +7°C° 0 mm 10 mps 754 mmHg 75%
    11:00 +7°C° 0 mm 10 mps 754 mmHg 76%
    12:00 +6°C° 0 mm 10 mps 754 mmHg 77%
    13:00 +6°C° 0.1 mm 10 mps 754 mmHg 79%
    14:00 +6°C° 0.1 mm 9 mps 754 mmHg 81%
    15:00 +6°C° 0.1 mm 8 mps 754 mmHg 83%
    16:00 +6°C° 1 mm 7 mps 753 mmHg 84%
    17:00 +7°C° 1 mm 6 mps 753 mmHg 85%
    18:00 +6°C° 1 mm 5 mps 753 mmHg 86%
    19:00 +6°C° 0.7 mm 4 mps 753 mmHg 86%
    20:00 +7°C° 0.7 mm 3 mps 753 mmHg 85%
    21:00 +7°C° 0.7 mm 2 mps 753 mmHg 84%
    22:00 +7°C° 0.7 mm 3 mps 752 mmHg 86%
    23:00 +7°C° 0.7 mm 3 mps 752 mmHg 88%

    Day after tomorrow, 26 January, Saturday

    Time Temperature Precipitation Wind Pressure Humidity
    00:00 +6°C° 0.7 mm 4 mps 752 mmHg 90%
    01:00 +7°C° 0.7 mm 6 mps 751 mmHg 91%
    02:00 +8°C° 0.7 mm 7 mps 750 mmHg 92%
    03:00 +7°C° 0.7 mm 8 mps 749 mmHg 93%
    04:00 +7°C° 1.1 mm 10 mps 748 mmHg 92%
    05:00 +8°C° 1.1 mm 12 mps 747 mmHg 91%
    06:00 +8°C° 1.1 mm 14 mps 746 mmHg 90%
    07:00 +8°C° 0.7 mm 13 mps 745 mmHg 91%
    08:00 +8°C° 0.7 mm 13 mps 744 mmHg 91%
    09:00 +7°C° 0.7 mm 13 mps 743 mmHg 92%
    10:00 +7°C° 1.3 mm 11 mps 742 mmHg 91%
    11:00 +7°C° 1.3 mm 9 mps 742 mmHg 91%
    12:00 +7°C° 1.3 mm 8 mps 741 mmHg 91%
    13:00 +8°C° 0.2 mm 6 mps 740 mmHg 87%
    14:00 +8°C° 0.2 mm 5 mps 739 mmHg 84%
    15:00 +8°C° 0.2 mm 4 mps 738 mmHg 81%
    16:00 +8°C° 0.2 mm 4 mps 738 mmHg 79%
    17:00 +9°C° 0.2 mm 3 mps 738 mmHg 77%
    18:00 +9°C° 0.2 mm 2 mps 738 mmHg 75%
    19:00 +6°C° 0.2 mm 7 mps 739 mmHg 77%
    20:00 +5°C° 0.2 mm 12 mps 739 mmHg 79%
    21:00 +3°C° 0.2 mm 17 mps 740 mmHg 81%
    22:00 +3°C° 0.5 mm 18 mps 741 mmHg 78%
    23:00 +3°C° 0.5 mm 19 mps 742 mmHg 76%

    27 January, Sunday

    Time Temperature Precipitation Wind Pressure Humidity
    00:00 +3°C° 0.5 mm 20 mps 743 mmHg 74%
    01:00 +3°C° 0.3 mm 20 mps 744 mmHg 72%
    02:00 +3°C° 0.3 mm 20 mps 745 mmHg 70%
    03:00 +3°C° 0.3 mm 20 mps 746 mmHg 68%
    04:00 +3°C° 0.1 mm 20 mps 747 mmHg 68%
    05:00 +2°C° 0.1 mm 20 mps 748 mmHg 67%
    06:00 +2°C° 0.1 mm 20 mps 749 mmHg 66%
    07:00 +2°C° 0.1 mm 20 mps 750 mmHg 66%
    08:00 +2°C° 0.1 mm 19 mps 751 mmHg 65%
    09:00 +2°C° 0.1 mm 19 mps 752 mmHg 65%
    10:00 +2°C° 0.1 mm 18 mps 753 mmHg 65%
    11:00 +1°C° 0.1 mm 17 mps 754 mmHg 65%
    12:00 +1°C° 0.1 mm 16 mps 754 mmHg 65%
    13:00 +1°C° 0.1 mm 15 mps 755 mmHg 66%
    14:00 +1°C° 0.1 mm 14 mps 755 mmHg 67%
    15:00 0°C° 0.1 mm 13 mps 756 mmHg 68%
    16:00 0°C° 0.1 mm 13 mps 756 mmHg 68%
    17:00 0°C° 0.1 mm 13 mps 757 mmHg 68%
    18:00 0°C° 0.1 mm 12 mps 757 mmHg 68%
    19:00 +1°C° 0.1 mm 11 mps 757 mmHg 67%
    20:00 +1°C° 0.1 mm 11 mps 758 mmHg 66%
    21:00 +1°C° 0.1 mm 10 mps 758 mmHg 65%
    22:00 +1°C° 0.1 mm 9 mps 758 mmHg 64%
    23:00 +1°C° 0.1 mm 9 mps 758 mmHg 63%

    28 January, Monday

    Time Temperature Precipitation Wind Pressure Humidity
    00:00 +2°C° 0.1 mm 8 mps 758 mmHg 62%
    01:00 +3°C° 0.1 mm 7 mps 758 mmHg 61%
    02:00 +3°C° 0.1 mm 7 mps 757 mmHg 60%
    03:00 +3°C° 0.1 mm 6 mps 757 mmHg 59%
    04:00 +3°C° 0 mm 5 mps 756 mmHg 59%
    05:00 +3°C° 0 mm 5 mps 756 mmHg 58%
    06:00 +4°C° 0 mm 4 mps 755 mmHg 58%
    07:00 +3°C° 0.2 mm 5 mps 754 mmHg 61%
    08:00 +3°C° 0.2 mm 6 mps 754 mmHg 65%
    09:00 +4°C° 0.2 mm 7 mps 753 mmHg 69%
    10:00 +3°C° 0.9 mm 9 mps 753 mmHg 71%
    11:00 +3°C° 0.9 mm 11 mps 753 mmHg 72%
    12:00 +4°C° 0.9 mm 14 mps 752 mmHg 74%
    13:00 +4°C° 0.1 mm 14 mps 752 mmHg 69%
    14:00 +3°C° 0.1 mm 14 mps 752 mmHg 65%
    15:00 +3°C° 0.1 mm 14 mps 752 mmHg 60%
    16:00 +3°C° 0.4 mm 13 mps 752 mmHg 62%
    17:00 +3°C° 0.4 mm 13 mps 752 mmHg 63%
    18:00 +3°C° 0.4 mm 13 mps 752 mmHg 65%
    19:00 +3°C° 0.4 mm 14 mps 752 mmHg 64%
    20:00 +1°C° 0.4 mm 14 mps 752 mmHg 64%
    21:00 +1°C° 0.4 mm 15 mps 752 mmHg 63%
    22:00 +1°C° 0.2 mm 14 mps 751 mmHg 62%
    23:00 +1°C° 0.2 mm 14 mps 751 mmHg 62%

    29 January, Tuesday

    Time Temperature Precipitation Wind Pressure Humidity
    00:00 0°C° 0.2 mm 13 mps 751 mmHg 61%
    01:00 0°C° 0.4 mm 13 mps 750 mmHg 61%
    02:00 0°C° 0.4 mm 13 mps 750 mmHg 60%
    03:00 0°C° 0.4 mm 12 mps 749 mmHg 60%
    04:00 0°C° 0.5 mm 12 mps 748 mmHg 60%
    05:00 0°C° 0.5 mm 12 mps 748 mmHg 59%
    06:00 0°C° 0.5 mm 12 mps 747 mmHg 59%
    07:00 0°C° 0.3 mm 12 mps 747 mmHg 59%
    08:00 +1°C° 0.3 mm 11 mps 747 mmHg 58%
    09:00 +1°C° 0.3 mm 11 mps 747 mmHg 58%
    10:00 +1°C° 0.3 mm 11 mps 746 mmHg 57%
    11:00 +1°C° 0.3 mm 11 mps 746 mmHg 55%
    12:00 +1°C° 0.3 mm 11 mps 746 mmHg 54%
    13:00 +1°C° 0.2 mm 11 mps 746 mmHg 54%
    14:00 +1°C° 0.2 mm 11 mps 746 mmHg 53%
    15:00 +1°C° 0.2 mm 11 mps 745 mmHg 53%
    16:00 +1°C° 0 mm 10 mps 745 mmHg 54%
    17:00 +2°C° 0 mm 10 mps 745 mmHg 55%
    18:00 +2°C° 0 mm 9 mps 744 mmHg 55%
    19:00 +2°C° 0 mm 9 mps 744 mmHg 55%
    20:00 +2°C° 0 mm 8 mps 743 mmHg 55%
    21:00 +3°C° 0 mm 7 mps 743 mmHg 54%
    22:00 +3°C° 0 mm 7 mps 742 mmHg 54%
    23:00 +3°C° 0 mm 6 mps 741 mmHg 55%
    Show more